User: anonymous   Login
Location: Columbia
(38.9520°N, 92.3340°W)
Time: 15:28:33
(UTC-05:00)
Language:

Iridium 22 - Orbit

View from above orbital plane
View from above orbital plane
View from above satellite
View from above satellite

Ground track
Ground track

The orbit data is extracted from the following two-line orbital elements,

1 24907U 97043E   17114.88852472 +.00000042 +00000-0 +80812-5 0  9993
2 24907 086.3933 278.3610 0002145 095.0718 265.0723 14.34216319030209
Epoch (UTC): 24 April 2017 21:19:28
Eccentricity: 0.0002145
inclination: 86.3933°
perigee height: 776 km
apogee height: 779 km
right ascension of ascending node: 278.3610°
argument of perigee: 95.0718°
revolutions per day: 14.34216319
mean anomaly at epoch: 265.0723°
orbit number at epoch: 3020

The dashed part of the orbit path shows where the satellite is in the earth's shadow,  

DLR